Content
SEND FEEDBACK

Daily
Averages
Monthly
Summary
United States of America

STATEN ISLAND, NEW YORK


Home > North America > United States > New York
Elevation: 152 feet     Latitude: 40 35N     Longitude: 074 09W

WEATHER
 
SELECT A DAY
Number of Records: 189,740;   Date Range: 1/1/95 - 8/12/14
 
SHARE

PRINT THIS DATA

[ ← Previous Day ]
WEATHER ALMANAC - FEBRUARY 8, 2013
[ Next Day → ]
[ °C ]   °F
Weather ElementAverageHighLow
Temperature33.2 °F35.6 °F (10:06 am)28 °F (10:51 pm)
Dewpoint30.4 °F33.8 °F (10:06 am)26.1 °F (1:51 am)
Humidity89.8 %96 % (3:51 pm)70 % (1:51 am)
Barometer29.87 in30.28 in (1:51 am)29.65 in (7:51 pm)
Wind Speed16.9 mph27.6 mph (2:15 pm)
Wind Gust33.4 mph (2:01 pm)
Weather ElementAverage
Visibility3.4 mi
Wind DirectionENE (72.4 °)

Weather ElementTotal
Precipitation1.30 in
Heating Degree Days33.2 (Base 65)
Averaged from 50 records on February 8, 2013
WEATHER CONDITIONS BREAKOUT
WIND DIRECTION BREAKOUT
WEATHER BY HOUR - FEBRUARY 8, 2013
[ °C ]   °F
Local TimeTemperatureDewpointHumidityBarometerVisibilityWind DirectionWind SpeedGust SpeedPrecipitationEventsConditions
1:51 AM35.1 °F26.1 °F70 %30.28 in10.0 miENE (60°)9.2 mph17.3 mphOvercast
2:51 AM35.1 °F26.1 °F70 %30.25 in10.0 miENE (60°)10.4 mphOvercast
3:51 AM35.1 °F27.0 °F72 %30.21 in10.0 miNE (50°)10.4 mph21.9 mphOvercast
4:51 AM34.0 °F26.1 °F73 %30.19 in10.0 miNNE (30°)9.2 mphOvercast
5:51 AM34.0 °F26.1 °F73 %30.17 in10.0 miNNE (30°)10.4 mphOvercast
6:51 AM33.1 °F28.9 °F85 %30.13 in3.0 miNNE (30°)13.8 mph0.00 inSnowLight Snow
7:08 AM33.8 °F30.2 °F87 %30.13 in3.0 miNNE (30°)12.7 mph0.00 inSnowLight Snow
7:17 AM33.8 °F30.2 °F87 %30.13 in1.0 miNE (40°)10.4 mph19.6 mph0.00 inSnowLight Snow
7:51 AM33.1 °F30.9 °F92 %30.12 in1.0 miNNE (30°)12.7 mph0.01 inSnowLight Snow
8:51 AM34.0 °F32.0 °F92 %30.08 in1.0 miNNE (30°)11.5 mph0.02 inSnowLight Snow
9:51 AM35.1 °F33.1 °F92 %30.03 in1.0 miNE (40°)11.5 mph0.03 inSnowLight Snow
10:06 AM35.6 °F33.8 °F93 %30.02 in2.0 miNE (40°)11.5 mph0.01 inSnowLight Snow
10:17 AM35.6 °F33.8 °F93 %30.01 in5.0 miNE (40°)12.7 mph0.02 inRainLight Ice Pellets
10:49 AM35.6 °F33.8 °F93 %29.99 in5.0 miNE (40°)12.7 mph0.04 inRainLight Ice Pellets
10:51 AM35.1 °F33.1 °F92 %29.99 in5.0 miNNE (30°)16.1 mph0.04 inRainLight Ice Pellets
11:51 AM35.1 °F33.1 °F92 %29.93 in5.0 miNE (40°)18.4 mph27.6 mph0.04 inRainLight Ice Pellets
12:00 PM35.6 °F33.8 °F93 %29.92 in5.0 miNE (40°)15.0 mph25.3 mph0.01 inRainLight Ice Pellets
12:03 PM35.6 °F33.8 °F93 %29.91 in5.0 miNE (40°)17.3 mph25.3 mph0.02 inRainLight Rain
12:10 PM35.6 °F33.8 °F93 %29.91 in4.0 miNE (40°)18.4 mph25.3 mph0.02 inRainLight Ice Pellets
12:36 PM33.8 °F32.0 °F93 %29.88 in4.0 miNNE (30°)23.0 mph27.6 mph0.06 inRainIce Pellets
12:47 PM33.8 °F32.0 °F93 %29.86 in5.0 miNE (40°)17.3 mph29.9 mph0.07 inRainLight Ice Pellets
12:51 PM34.0 °F32.0 °F92 %29.86 in5.0 miNE (40°)19.6 mph27.6 mph0.07 inRainLight Ice Pellets
12:58 PM33.8 °F32.0 °F93 %29.85 in4.0 miNE (40°)18.4 mph32.2 mph0.02 inRainIce Pellets
1:22 PM33.8 °F30.2 °F87 %29.83 in4.0 miNE (40°)21.9 mph32.2 mph0.05 inRainLight Ice Pellets
1:42 PM33.8 °F30.2 °F87 %29.80 in5.0 miNE (40°)20.7 mph31.1 mph0.07 inRainIce Pellets
1:51 PM34.0 °F30.9 °F89 %29.79 in5.0 miNE (40°)19.6 mph32.2 mph0.09 inRainIce Pellets
2:01 PM33.8 °F30.2 °F87 %29.78 in4.0 miNNE (30°)25.3 mph33.4 mph0.00 inSnowIce Pellets
2:15 PM33.8 °F30.2 °F87 %29.77 in3.0 miNNE (30°)27.6 mph33.4 mph0.01 inSnowLight Snow
2:51 PM34.0 °F32.0 °F92 %29.74 in3.0 miNNE (30°)19.6 mph29.9 mph0.04 inSnowLight Snow
2:57 PM33.8 °F32.0 °F93 %29.74 in2.5 miNNE (20°)19.6 mph27.6 mph0.00 inSnowLight Snow
3:02 PM33.8 °F32.0 °F93 %29.74 in2.0 miNNE (20°)19.6 mph27.6 mph0.01 inSnowLight Snow
3:24 PM33.8 °F32.0 °F93 %29.73 in1.8 miNNE (20°)17.3 mph0.02 inSnowLight Snow
3:51 PM33.1 °F32.0 °F96 %29.72 in1.5 miNNE (20°)18.4 mph0.06 inSnowLight Snow
4:02 PM33.8 °F32.0 °F93 %29.72 in2.0 miNNE (20°)16.1 mph25.3 mph0.02 inSnowLight Snow
4:10 PM33.8 °F32.0 °F93 %29.72 in1.5 miNNE (20°)16.1 mph24.2 mph0.03 inSnowLight Snow
4:51 PM32.0 °F30.9 °F96 %29.70 in0.8 miNNE (20°)17.3 mph0.08 inSnowLight Snow
5:37 PM32.0 °F30.2 °F93 %29.68 in1.0 miNorth (10°)19.6 mph0.05 inSnowLight Snow
5:51 PM32.0 °F30.9 °F96 %29.67 in1.0 miNorth (10°)18.4 mph0.06 inSnowLight Snow
6:32 PM32.0 °F30.2 °F93 %29.67 in2.0 miNorth (10°)16.1 mph26.5 mph0.02 inSnowLight Snow
6:51 PM32.0 °F30.0 °F92 %29.66 in2.0 miNorth (10°)21.9 mph28.8 mph0.02 inSnowLight Snow
6:55 PM32.0 °F30.2 °F93 %29.66 in2.0 miNorth (10°)18.4 mph28.8 mph0.00 inSnowLight Snow
7:40 PM30.2 °F28.4 °F93 %29.66 in1.5 miNorth (10°)19.6 mph0.00 inSnowLight Snow
7:51 PM30.9 °F28.9 °F92 %29.65 in1.5 miNorth (10°)23.0 mph27.6 mph0.00 inSnowLight Snow
8:51 PM30.9 °F28.0 °F89 %29.65 in2.5 miNorth (360°)21.9 mph27.6 mph0.00 inSnowLight Snow
9:51 PM30.9 °F28.0 °F89 %29.69 in2.5 miNW (310°)13.8 mph25.3 mph0.01 inSnowLight Snow
10:09 PM30.2 °F28.4 °F93 %29.70 in1.5 miNW (320°)15.0 mph21.9 mph0.00 inSnowLight Snow
10:32 PM30.2 °F28.4 °F93 %29.71 in1.0 miNNW (330°)18.4 mph26.5 mph0.01 inSnowLight Snow
10:51 PM28.0 °F27.0 °F96 %29.72 in1.0 miNW (320°)18.4 mph25.3 mph0.03 inSnowLight Snow
11:16 PM28.4 °F26.6 °F93 %29.74 in0.5 miNNW (330°)17.3 mph24.2 mph0.03 inFog-SnowSnow
11:51 PM28.0 °F26.1 °F92 %29.76 in0.5 miNNW (340°)19.6 mph0.11 inFog-SnowSnow
Hourly data recorded from KEWR, located miles away from Staten Island, New York







STORIES FROM OUR PARTNERS